WZZ3414 EPWA-EDDN

Flight info

Callsign WZZ3414
Flight time 1h 7m
Altitude 38000
Route SOXER DCT VAMPU N869 AGALU DCT TOMTI DCT ASTEL DCT OKG DCT AMOSA N869 LETKU LETKU1V
Aircraft A20N/M-SDE2E3FGHIRWXY/LB1

Departure

Time 2026-05-07 19:25
Airport Warsaw Chopin Airport (EPWA)

Arrival

Time 2026-05-07 20:32
Airport Nuremberg Airport (EDDN)
Time Latitude Longitude Altitude Speed Heading
2026-05-07 19:02 52.17312 20.96576 332 ft 0 kts 242°
2026-05-07 19:19 52.17305 20.96555 333 ft 5 kts 242°
2026-05-07 19:20 52.17275 20.96510 333 ft 7 kts 191°
2026-05-07 19:20 52.17225 20.96543 334 ft 10 kts 152°
2026-05-07 19:20 52.17154 20.96600 336 ft 13 kts 152°
2026-05-07 19:20 52.17066 20.96683 335 ft 16 kts 151°
2026-05-07 19:21 52.16956 20.96781 336 ft 20 kts 152°
2026-05-07 19:21 52.16827 20.96892 334 ft 22 kts 152°
2026-05-07 19:21 52.16751 20.96956 336 ft 7 kts 153°
2026-05-07 19:21 52.16698 20.97003 332 ft 11 kts 150°
2026-05-07 19:22 52.16649 20.97107 333 ft 13 kts 121°
2026-05-07 19:22 52.16606 20.97262 335 ft 17 kts 114°
2026-05-07 19:22 52.16553 20.97445 334 ft 20 kts 114°
2026-05-07 19:22 52.16492 20.97660 334 ft 22 kts 114°
2026-05-07 19:23 52.16450 20.97790 334 ft 12 kts 141°
2026-05-07 19:23 52.16370 20.97776 334 ft 5 kts 209°
2026-05-07 19:23 52.16361 20.97767 335 ft 3 kts 208°
2026-05-07 19:23 52.16325 20.97738 333 ft 8 kts 209°
2026-05-07 19:24 52.16309 20.97656 334 ft 9 kts 292°
2026-05-07 19:24 52.16316 20.97635 333 ft 0 kts 297°
2026-05-07 19:24 52.16319 20.97625 334 ft 9 kts 297°
2026-05-07 19:24 52.16458 20.97139 334 ft 84 kts 295°
2026-05-07 19:25 52.16786 20.95965 337 ft 141 kts 294°
2026-05-07 19:25 52.17196 20.94421 768 ft 150 kts 295°
2026-05-07 19:25 52.17619 20.92879 1495 ft 149 kts 297°
2026-05-07 19:25 52.18053 20.91353 2158 ft 149 kts 297°
2026-05-07 19:26 52.18348 20.89648 2570 ft 168 kts 273°
2026-05-07 19:26 52.18228 20.87660 3068 ft 184 kts 263°
2026-05-07 19:26 52.18060 20.85482 3585 ft 206 kts 264°
2026-05-07 19:26 52.18033 20.83033 4209 ft 228 kts 275°
2026-05-07 19:27 52.18338 20.80387 4912 ft 249 kts 283°
2026-05-07 19:27 52.18761 20.77567 5754 ft 260 kts 283°
2026-05-07 19:27 52.19173 20.74723 6833 ft 262 kts 282°
2026-05-07 19:27 52.19521 20.71796 7836 ft 266 kts 273°
2026-05-07 19:28 52.19400 20.68774 8851 ft 269 kts 257°
2026-05-07 19:28 52.18808 20.65870 9896 ft 273 kts 249°
2026-05-07 19:28 52.18137 20.62913 10633 ft 287 kts 249°
2026-05-07 19:28 52.17425 20.59729 11050 ft 311 kts 250°
2026-05-07 19:29 52.16667 20.56319 11593 ft 326 kts 249°
2026-05-07 19:29 52.15895 20.52830 12525 ft 329 kts 249°
2026-05-07 19:29 52.15113 20.49305 13473 ft 333 kts 249°
2026-05-07 19:29 52.14383 20.45699 14325 ft 337 kts 251°
2026-05-07 19:30 52.13709 20.42078 15133 ft 341 kts 252°
2026-05-07 19:30 52.13027 20.38369 15933 ft 345 kts 251°
2026-05-07 19:30 52.12329 20.34620 16733 ft 348 kts 251°
2026-05-07 19:30 52.11613 20.30829 17528 ft 352 kts 251°
2026-05-07 19:31 52.10883 20.27008 18321 ft 356 kts 251°
2026-05-07 19:31 52.10144 20.23157 19021 ft 358 kts 250°
2026-05-07 19:31 52.09396 20.19268 19710 ft 362 kts 250°
2026-05-07 19:31 52.08642 20.15357 20391 ft 365 kts 249°
2026-05-07 19:32 52.07878 20.11399 21071 ft 368 kts 249°
2026-05-07 19:32 52.07106 20.07412 21721 ft 372 kts 248°
2026-05-07 19:32 52.06324 20.03377 22368 ft 376 kts 248°
2026-05-07 19:32 52.05532 19.99302 23029 ft 380 kts 248°
2026-05-07 19:33 52.04741 19.95245 23622 ft 384 kts 247°
2026-05-07 19:33 52.03925 19.91108 23909 ft 385 kts 246°
2026-05-07 19:33 52.03050 19.87002 24005 ft 385 kts 245°
2026-05-07 19:33 52.02149 19.82908 24015 ft 385 kts 245°
2026-05-07 19:34 52.01247 19.78822 24016 ft 385 kts 245°
2026-05-07 19:34 52.00348 19.74733 24015 ft 385 kts 245°
2026-05-07 19:34 51.99446 19.70620 24198 ft 389 kts 245°
2026-05-07 19:34 51.98542 19.66486 24871 ft 387 kts 245°
2026-05-07 19:35 51.97640 19.62359 25468 ft 389 kts 245°
2026-05-07 19:35 51.96733 19.58223 25987 ft 391 kts 245°
2026-05-07 19:35 51.95818 19.54057 26518 ft 394 kts 245°
2026-05-07 19:35 51.94895 19.49861 27033 ft 396 kts 244°
2026-05-07 19:36 51.93980 19.45711 27527 ft 398 kts 244°
2026-05-07 19:36 51.93043 19.41469 28014 ft 400 kts 244°
2026-05-07 19:36 51.92101 19.37213 28483 ft 403 kts 244°
2026-05-07 19:36 51.91150 19.32929 28934 ft 405 kts 244°
2026-05-07 19:37 51.90195 19.28628 29369 ft 407 kts 244°
2026-05-07 19:37 51.89231 19.24302 29770 ft 410 kts 244°
2026-05-07 19:37 51.88261 19.19955 30175 ft 412 kts 244°
2026-05-07 19:37 51.87285 19.15589 30533 ft 414 kts 244°
2026-05-07 19:38 51.86299 19.11186 30910 ft 416 kts 244°
2026-05-07 19:38 51.85327 19.06775 31322 ft 417 kts 244°
2026-05-07 19:38 51.84365 19.02355 31809 ft 416 kts 244°
2026-05-07 19:38 51.83415 18.97993 32326 ft 414 kts 244°
2026-05-07 19:39 51.82456 18.93608 32843 ft 412 kts 244°
2026-05-07 19:39 51.81500 18.89254 33315 ft 410 kts 245°
2026-05-07 19:39 51.80545 18.84925 33785 ft 409 kts 245°
2026-05-07 19:39 51.79588 18.80597 34019 ft 407 kts 245°
2026-05-07 19:40 51.77690 18.72022 34031 ft 406 kts 244°
2026-05-07 19:40 51.75790 18.63477 34035 ft 407 kts 244°
2026-05-07 19:41 51.73908 18.55045 34048 ft 408 kts 244°
2026-05-07 19:41 51.71979 18.46436 34046 ft 409 kts 244°
2026-05-07 19:42 51.70036 18.37800 34040 ft 410 kts 244°
2026-05-07 19:42 51.68095 18.29209 34046 ft 411 kts 244°
2026-05-07 19:43 51.66128 18.20538 34034 ft 412 kts 244°
2026-05-07 19:43 51.64151 18.11859 34052 ft 413 kts 244°
2026-05-07 19:44 51.62161 18.03161 34045 ft 414 kts 244°
2026-05-07 19:44 51.60162 17.94459 34052 ft 415 kts 244°
2026-05-07 19:45 51.58151 17.85735 34050 ft 416 kts 244°
2026-05-07 19:45 51.56130 17.77003 34052 ft 417 kts 244°
2026-05-07 19:46 51.54112 17.68322 34050 ft 418 kts 244°
2026-05-07 19:46 51.52074 17.59586 34051 ft 419 kts 244°
2026-05-07 19:47 51.50023 17.50829 34051 ft 420 kts 244°
2026-05-07 19:47 51.47960 17.42055 34050 ft 420 kts 244°
2026-05-07 19:48 51.45887 17.33288 34054 ft 421 kts 244°
2026-05-07 19:48 51.43820 17.24580 34056 ft 422 kts 245°
2026-05-07 19:49 51.41728 17.15789 34055 ft 422 kts 245°
2026-05-07 19:49 51.39625 17.06992 34054 ft 423 kts 245°
2026-05-07 19:50 51.37511 16.98189 34059 ft 425 kts 245°
2026-05-07 19:50 51.35384 16.89368 34061 ft 425 kts 245°
2026-05-07 19:51 51.33245 16.80530 34063 ft 426 kts 245°
2026-05-07 19:51 51.31094 16.71681 34060 ft 427 kts 245°
2026-05-07 19:52 51.28950 16.62894 34063 ft 428 kts 245°
2026-05-07 19:52 51.26779 16.54031 34062 ft 429 kts 245°
2026-05-07 19:53 51.24600 16.45172 34054 ft 429 kts 245°
2026-05-07 19:53 51.22411 16.36307 34052 ft 429 kts 245°
2026-05-07 19:54 51.20227 16.27495 34048 ft 430 kts 245°
2026-05-07 19:54 51.18022 16.18638 34050 ft 431 kts 245°
2026-05-07 19:55 51.15804 16.09763 34053 ft 431 kts 245°
2026-05-07 19:55 51.13580 16.00897 34051 ft 431 kts 246°
2026-05-07 19:56 51.11345 15.92028 34049 ft 432 kts 246°
2026-05-07 19:56 51.09480 15.84652 34050 ft 433 kts 246°
2026-05-07 19:57 51.06859 15.74321 34049 ft 433 kts 246°
2026-05-07 19:57 51.04594 15.65441 34046 ft 434 kts 246°
2026-05-07 19:58 51.02703 15.58048 34043 ft 435 kts 246°
2026-05-07 19:58 51.00417 15.49146 34043 ft 435 kts 246°
2026-05-07 19:59 50.97748 15.38794 34044 ft 436 kts 246°
2026-05-07 19:59 50.95818 15.31333 34042 ft 436 kts 246°
2026-05-07 20:00 50.93733 15.22376 34040 ft 437 kts 251°
2026-05-07 20:00 50.91944 15.13095 34037 ft 447 kts 251°
2026-05-07 20:01 50.90060 15.03648 34036 ft 450 kts 251°
2026-05-07 20:01 50.88131 14.94236 34035 ft 449 kts 251°
2026-05-07 20:02 50.86062 14.84896 34039 ft 449 kts 245°
2026-05-07 20:02 50.83337 14.76073 34037 ft 449 kts 243°
2026-05-07 20:03 50.80576 14.67216 34039 ft 449 kts 243°
2026-05-07 20:03 50.77811 14.58362 34034 ft 450 kts 243°
2026-05-07 20:04 50.75032 14.49503 34036 ft 450 kts 243°
2026-05-07 20:04 50.72246 14.40655 34041 ft 450 kts 243°
2026-05-07 20:05 50.69469 14.31869 34038 ft 450 kts 243°
2026-05-07 20:05 50.66675 14.23060 34038 ft 450 kts 243°
2026-05-07 20:06 50.63863 14.14228 34033 ft 450 kts 243°
2026-05-07 20:06 50.61052 14.05428 34041 ft 450 kts 243°
2026-05-07 20:07 50.58249 13.96685 34038 ft 450 kts 243°
2026-05-07 20:07 50.55419 13.87889 34044 ft 450 kts 243°
2026-05-07 20:08 50.52585 13.79110 34048 ft 450 kts 243°
2026-05-07 20:08 50.49764 13.70405 33782 ft 441 kts 243°
2026-05-07 20:09 50.48157 13.66335 33502 ft 434 kts 234°
2026-05-07 20:09 50.46292 13.62602 33233 ft 438 kts 231°
2026-05-07 20:09 50.44346 13.58883 32965 ft 441 kts 231°
2026-05-07 20:10 50.40539 13.51434 32437 ft 440 kts 233°
2026-05-07 20:10 50.38656 13.47656 32170 ft 440 kts 233°
2026-05-07 20:10 50.36781 13.43867 31916 ft 440 kts 234°
2026-05-07 20:10 50.34911 13.40080 31671 ft 440 kts 234°
2026-05-07 20:11 50.33039 13.36293 31405 ft 440 kts 234°
2026-05-07 20:11 50.31161 13.32502 31152 ft 441 kts 234°
2026-05-07 20:11 50.29284 13.28716 30902 ft 441 kts 234°
2026-05-07 20:11 50.27398 13.24922 30652 ft 441 kts 234°
2026-05-07 20:12 50.25546 13.21200 30403 ft 439 kts 234°
2026-05-07 20:12 50.23657 13.17410 30163 ft 437 kts 234°
2026-05-07 20:12 50.21812 13.13712 29876 ft 435 kts 234°
2026-05-07 20:12 50.19954 13.09993 29588 ft 434 kts 234°
2026-05-07 20:13 50.18098 13.06282 29301 ft 433 kts 234°
2026-05-07 20:13 50.16248 13.02590 29012 ft 431 kts 234°
2026-05-07 20:13 50.14401 12.98909 28728 ft 430 kts 234°
2026-05-07 20:13 50.12560 12.95244 28312 ft 429 kts 234°
2026-05-07 20:14 50.10721 12.91589 27713 ft 428 kts 234°
2026-05-07 20:14 50.08893 12.87962 27121 ft 423 kts 234°
2026-05-07 20:14 50.07114 12.84438 26543 ft 418 kts 234°
2026-05-07 20:14 50.05303 12.80855 25956 ft 413 kts 234°
2026-05-07 20:15 50.03562 12.77413 25298 ft 411 kts 234°
2026-05-07 20:15 50.01792 12.73919 24713 ft 407 kts 234°
2026-05-07 20:15 50.00050 12.70484 24156 ft 402 kts 234°
2026-05-07 20:15 49.98320 12.67077 23564 ft 399 kts 234°
2026-05-07 20:16 49.96612 12.63718 22953 ft 394 kts 234°
2026-05-07 20:16 49.94922 12.60399 22400 ft 389 kts 234°
2026-05-07 20:16 49.93253 12.57122 21828 ft 384 kts 234°
2026-05-07 20:16 49.91605 12.53892 21282 ft 380 kts 234°
2026-05-07 20:17 49.89998 12.50745 20732 ft 376 kts 234°
2026-05-07 20:17 49.88381 12.47583 20187 ft 372 kts 234°
2026-05-07 20:17 49.86781 12.44457 19643 ft 369 kts 234°
2026-05-07 20:17 49.85192 12.41357 19097 ft 366 kts 234°
2026-05-07 20:18 49.83612 12.38276 18523 ft 365 kts 233°
2026-05-07 20:18 49.82040 12.35217 17970 ft 361 kts 233°
2026-05-07 20:18 49.80488 12.32200 17430 ft 357 kts 233°
2026-05-07 20:18 49.78946 12.29208 16887 ft 353 kts 233°
2026-05-07 20:19 49.77428 12.26264 16360 ft 350 kts 233°
2026-05-07 20:19 49.75931 12.23366 15838 ft 347 kts 233°
2026-05-07 20:19 49.74433 12.20469 15321 ft 344 kts 233°
2026-05-07 20:19 49.72944 12.17593 14796 ft 341 kts 233°
2026-05-07 20:20 49.71466 12.14740 14285 ft 339 kts 233°
2026-05-07 20:20 49.69999 12.11912 13745 ft 336 kts 233°
2026-05-07 20:20 49.68547 12.09116 13229 ft 333 kts 233°
2026-05-07 20:20 49.67110 12.06351 12728 ft 329 kts 233°
2026-05-07 20:21 49.65692 12.03626 12231 ft 325 kts 233°
2026-05-07 20:21 49.64281 12.00916 11742 ft 322 kts 233°
2026-05-07 20:21 49.62881 11.98231 11255 ft 320 kts 233°
2026-05-07 20:21 49.61490 11.95565 10764 ft 317 kts 233°
2026-05-07 20:22 49.60110 11.92923 10308 ft 314 kts 233°
2026-05-07 20:22 49.58768 11.90359 10166 ft 301 kts 233°
2026-05-07 20:22 49.57501 11.87942 10047 ft 288 kts 233°
2026-05-07 20:22 49.56258 11.85572 9703 ft 283 kts 233°
2026-05-07 20:23 49.55036 11.83242 9452 ft 274 kts 233°
2026-05-07 20:23 49.53836 11.80953 9289 ft 278 kts 233°
2026-05-07 20:23 49.52612 11.78620 8929 ft 282 kts 233°
2026-05-07 20:23 49.51381 11.76278 8546 ft 280 kts 233°
2026-05-07 20:24 49.50161 11.73960 8161 ft 278 kts 233°
2026-05-07 20:24 49.48947 11.71658 7783 ft 275 kts 233°
2026-05-07 20:24 49.47753 11.69393 7406 ft 271 kts 233°
2026-05-07 20:24 49.46585 11.67178 7052 ft 269 kts 233°
2026-05-07 20:25 49.45449 11.64922 6678 ft 265 kts 240°
2026-05-07 20:25 49.44833 11.62300 6297 ft 260 kts 263°
2026-05-07 20:25 49.44805 11.59544 5945 ft 256 kts 276°
2026-05-07 20:25 49.45031 11.56869 6055 ft 261 kts 279°
2026-05-07 20:26 49.45317 11.54049 6049 ft 267 kts 279°
2026-05-07 20:26 49.45587 11.51287 6029 ft 258 kts 279°
2026-05-07 20:26 49.45857 11.48556 6010 ft 259 kts 279°
2026-05-07 20:26 49.46129 11.45806 5861 ft 261 kts 279°
2026-05-07 20:27 49.46397 11.43070 5496 ft 262 kts 279°
2026-05-07 20:27 49.46668 11.40320 5109 ft 258 kts 279°
2026-05-07 20:27 49.46931 11.37652 4753 ft 247 kts 279°
2026-05-07 20:27 49.47176 11.35156 4417 ft 224 kts 279°
2026-05-07 20:28 49.47396 11.32915 4113 ft 200 kts 280°
2026-05-07 20:28 49.47593 11.30920 3901 ft 177 kts 280°
2026-05-07 20:28 49.47769 11.29133 3655 ft 161 kts 281°
2026-05-07 20:28 49.47929 11.27510 3448 ft 145 kts 281°
2026-05-07 20:29 49.48071 11.26059 3260 ft 130 kts 281°
2026-05-07 20:29 49.48205 11.24713 3081 ft 130 kts 281°
2026-05-07 20:29 49.48340 11.23344 2907 ft 129 kts 281°
2026-05-07 20:29 49.48474 11.21983 2731 ft 129 kts 281°
2026-05-07 20:30 49.48608 11.20624 2554 ft 129 kts 281°
2026-05-07 20:30 49.48742 11.19258 2378 ft 129 kts 281°
2026-05-07 20:30 49.48876 11.17901 2193 ft 129 kts 280°
2026-05-07 20:30 49.49010 11.16540 2013 ft 129 kts 280°
2026-05-07 20:31 49.49144 11.15183 1830 ft 129 kts 279°
2026-05-07 20:31 49.49278 11.13826 1656 ft 128 kts 279°
2026-05-07 20:31 49.49411 11.12484 1466 ft 128 kts 279°
2026-05-07 20:31 49.49545 11.11119 1300 ft 127 kts 279°
2026-05-07 20:32 49.49673 11.09792 1136 ft 127 kts 278°
2026-05-07 20:32 49.49801 11.08480 1043 ft 115 kts 281°
2026-05-07 20:32 49.49893 11.07577 1046 ft 57 kts 279°
2026-05-07 20:32 49.49929 11.07192 1040 ft 25 kts 278°
2026-05-07 20:33 49.49922 11.07035 1036 ft 9 kts 189°
2026-05-07 20:33 49.49835 11.07041 1035 ft 5 kts 165°
2026-05-07 20:33 49.49834 11.07042 1035 ft 0 kts 162°
2026-05-07 20:34 49.49817 11.07050 1034 ft 6 kts 161°
2026-05-07 20:34 49.49768 11.07085 1034 ft 10 kts 148°
2026-05-07 20:34 49.49741 11.07161 1036 ft 0 kts 103°
2026-05-07 20:34 49.49740 11.07172 1036 ft 2 kts 102°
2026-05-07 20:35 49.49736 11.07206 1037 ft 5 kts 98°
2026-05-07 20:35 49.49731 11.07268 1037 ft 7 kts 97°
2026-05-07 20:35 49.49723 11.07358 1038 ft 10 kts 97°
2026-05-07 20:35 49.49712 11.07474 1040 ft 12 kts 99°
2026-05-07 20:36 49.49699 11.07605 1043 ft 13 kts 98°
2026-05-07 20:36 49.49693 11.07672 1043 ft 1 kts 98°
2026-05-07 20:36 49.49689 11.07707 1043 ft 6 kts 98°
2026-05-07 20:36 49.49676 11.07759 1042 ft 5 kts 134°
2026-05-07 20:37 49.49653 11.07771 1041 ft 5 kts 176°
2026-05-07 20:37 49.49607 11.07757 1039 ft 9 kts 207°
2026-05-07 20:37 49.49597 11.07717 1038 ft 0 kts 259°
2026-05-07 20:38 49.49592 11.07690 1037 ft 6 kts 245°
2026-05-07 20:38 49.49577 11.07674 1036 ft 3 kts 199°
2026-05-07 20:38 49.49529 11.07660 1032 ft 0 kts 189°